Corsicana, TX

2:20 PM CST on December 12, 2017 (GMT -0600)
Campbell-Corsicana Municipal

Weather History for KCRS - December, 2012

Change the Weather History Date:

Wednesday, December 5, 2012

  Actual Average (KTYR) Record (KTYR)
Temperature  
Mean Temperature 56 °F -  
Max Temperature 66 °F 59 °F 81 °F (1914)
Min Temperature 45 °F 40 °F 11 °F (1897)
Degree Days  
Heating Degree Days 10    
Growing Degree Days 6 (Base 50)    
Moisture  
Dew Point 40 °F    
Average Humidity 62    
Maximum Humidity 89    
Minimum Humidity 44    
Precipitation  
Precipitation 0.00 in - - ()
Sea Level Pressure  
Sea Level Pressure 30.19 in    
Wind  
Wind Speed 6 mph (NNE)    
Max Wind Speed 10 mph    
Max Gust Speed -    
Visibility 10 miles    
Events      
Averages and records for this station are not official NWS values.
T = Trace of Precipitation, MM = Missing Value Source: NWS Daily Summary

Daily Weather History Graph

Daily Weather History Graph

Search for Another Location

Airport or City:

Trip Planner

Search our weather history database for the weather conditions in past years. The results will help you decide how hot, cold, wet, or windy it might be!

Date:

Astronomy

Dec. 05, 2012 Rise Set
Actual Time 7:11 AM CST 5:20 PM CST
Civil Twilight 6:45 AM CST 5:47 PM CST
Nautical Twilight 6:14 AM CST 6:18 PM CST
Astronomical Twilight 5:45 AM CST 6:47 PM CST
Moon 11:53 PM CST (12/5) 11:52 AM CST (12/5)
Length of Visible Light 11h 02m
Length of Day
10h 08m
Waning Gibbous, 59% of the Moon is Illuminated
Dec 5
Waning Gibbous
Dec 6
Last Quarter
Dec 13
New
Dec 19
First Quarter
Dec 28
Full

Hourly Weather History & Observations

Time (CST) Temp. Windchill Dew Point Humidity Pressure Visibility Wind Dir Wind Speed Gust Speed Precip Events Conditions
12:53 AM 50.0 °F - 28.9 °F 44% 30.23 in 10.0 mi North 5.8 mph - N/A   Clear
1:53 AM 48.9 °F - 30.0 °F 48% 30.23 in 10.0 mi North 6.9 mph - N/A   Clear
2:20 AM 50.0 °F - 30.2 °F 47% 30.23 in 10.0 mi North 8.1 mph - N/A   Mostly Cloudy
2:50 AM 48.2 °F - 30.2 °F 50% 30.22 in 10.0 mi North 6.9 mph - N/A   Partly Cloudy
2:53 AM 48.9 °F - 30.9 °F 50% 30.22 in 10.0 mi North 9.2 mph - N/A   Partly Cloudy
3:50 AM 48.2 °F - 32.0 °F 54% 30.23 in 10.0 mi North 9.2 mph - N/A   Mostly Cloudy
3:53 AM 48.0 °F - 32.0 °F 54% 30.23 in 10.0 mi North 8.1 mph - N/A   Mostly Cloudy
4:00 AM 48.2 °F - 32.0 °F 54% 30.23 in 10.0 mi NNW 9.2 mph - N/A   Scattered Clouds
4:53 AM 48.0 °F - 32.0 °F 54% 30.24 in 10.0 mi NNW 10.4 mph - N/A   Partly Cloudy
5:53 AM 46.9 °F - 33.1 °F 59% 30.24 in 10.0 mi North 8.1 mph - N/A   Clear
6:53 AM 45.0 °F 41.2 °F 33.1 °F 63% 30.26 in 10.0 mi North 6.9 mph - N/A   Clear
8:53 AM 52.0 °F - 36.0 °F 54% 30.26 in 10.0 mi North 5.8 mph - N/A   Clear
9:19 AM 51.8 °F - 37.4 °F 58% 30.27 in 10.0 mi North 6.9 mph - N/A   Mostly Cloudy
9:53 AM 55.0 °F - 39.9 °F 57% 30.27 in 10.0 mi North 5.8 mph - N/A   Overcast
10:53 AM 57.9 °F - 43.0 °F 58% 30.26 in 10.0 mi NNE 3.5 mph - N/A   Overcast
11:53 AM 60.1 °F - 45.0 °F 57% 30.23 in 10.0 mi North 6.9 mph - N/A   Overcast
12:53 PM 62.1 °F - 46.9 °F 58% 30.19 in 10.0 mi NNW 4.6 mph - N/A   Overcast
1:53 PM 64.9 °F - 48.9 °F 56% 30.15 in 10.0 mi NW 5.8 mph - N/A   Scattered Clouds
2:53 PM 66.9 °F - 48.9 °F 52% 30.13 in 10.0 mi ENE 3.5 mph - N/A   Clear
3:53 PM 64.9 °F - 48.9 °F 56% 30.12 in 10.0 mi Variable 3.5 mph - N/A   Clear
4:53 PM 62.1 °F - 50.0 °F 65% 30.12 in 10.0 mi ENE 5.8 mph - N/A   Clear
5:53 PM 57.9 °F - 48.9 °F 72% 30.11 in 10.0 mi ENE 5.8 mph - N/A   Clear
6:53 PM 57.0 °F - 48.9 °F 74% 30.11 in 10.0 mi ENE 3.5 mph - N/A   Clear
7:53 PM 54.0 °F - 48.9 °F 83% 30.11 in 10.0 mi East 4.6 mph - N/A   Clear
8:53 PM 53.1 °F - 48.9 °F 86% 30.10 in 10.0 mi East 4.6 mph - N/A   Clear
9:53 PM 52.0 °F - 48.9 °F 89% 30.09 in 10.0 mi East 3.5 mph - N/A   Clear
10:53 PM 51.1 °F - 48.0 °F 89% 30.09 in 9.0 mi Calm Calm - N/A   Clear
11:53 PM 50.0 °F - 46.9 °F 89% 30.07 in 9.0 mi Calm Calm - N/A   Clear